La Porte, IN

1:34 AM CST on December 08, 2016 (GMT -0600)
La Porte Municipal

Weather History for KPPO - November, 2012

Change the Weather History Date:

Thursday, November 1, 2012

  Actual Average (KVPZ) Record (KVPZ)
Temperature  
Mean Temperature 40 °F 47 °F  
Max Temperature 48 °F 56 °F 79 °F (2016)
Min Temperature 33 °F 38 °F 26 °F (2002)
Degree Days  
Heating Degree Days 24 18  
Month to date heating degree days 18  
Since 1 July heating degree days 548  
Cooling Degree Days 0 0  
Month to date cooling degree days 0  
Year to date cooling degree days 713  
Moisture  
Dew Point 27 °F    
Average Humidity 60    
Maximum Humidity 89    
Minimum Humidity 25    
Precipitation  
Precipitation 0.00 in 0.14 in 1.26 in (2004)
Month to date precipitation 0.14  
Year to date precipitation 32.14  
Sea Level Pressure  
Sea Level Pressure 29.83 in    
Wind  
Wind Speed 7 mph ()    
Max Wind Speed 16 mph    
Max Gust Speed 29 mph    
Visibility 9.7 miles    
Events      
T = Trace of Precipitation, MM = Missing Value Source: Averaged Metar Reports

Daily Weather History Graph

Daily Weather History Graph

Search for Another Location

Airport or City:

Trip Planner

Search our weather history database for the weather conditions in past years. The results will help you decide how hot, cold, wet, or windy it might be!

Date:

Astronomy

Nov. 01, 2012 Rise Set
Actual Time 7:19 AM CDT 5:41 PM CDT
Civil Twilight 6:50 AM CDT 6:09 PM CDT
Nautical Twilight 6:17 AM CDT 6:42 PM CDT
Astronomical Twilight 5:45 AM CDT 7:14 PM CDT
Moon 7:36 PM CDT (11/1) 9:53 AM CDT (11/1)
Length of Visible Light 11h 19m
Length of Day
10h 21m
Waning Gibbous, 93% of the Moon is Illuminated
Nov 1
Waning Gibbous
Nov 6
Last Quarter
Nov 13
New
Nov 20
First Quarter
Nov 28
Full

Hourly Weather History & Observations

Time (CDT) Temp. Windchill Dew Point Humidity Pressure Visibility Wind Dir Wind Speed Gust Speed Precip Events Conditions
12:15 AM 40.6 °F 33.8 °F 29.5 °F 64% 29.80 in 10.0 mi NNW 11.5 mph 17.3 mph N/A   Clear
12:35 AM 40.1 °F 33.2 °F 29.3 °F 65% 29.80 in 10.0 mi NW 11.5 mph - N/A   Clear
12:55 AM 39.7 °F 33.2 °F 29.1 °F 66% 29.80 in 10.0 mi NW 10.4 mph 16.1 mph N/A   Clear
1:15 AM 39.0 °F 32.3 °F 28.4 °F 66% 29.80 in 10.0 mi NW 10.4 mph - N/A   Clear
1:35 AM 39.2 °F 33.6 °F 27.5 °F 63% 29.80 in 10.0 mi NW 8.1 mph - N/A   Clear
1:55 AM 39.2 °F 33.0 °F 26.2 °F 60% 29.80 in 10.0 mi NW 9.2 mph - N/A   Clear
2:15 AM 39.9 °F 33.4 °F 27.1 °F 60% 29.81 in 10.0 mi NW 10.4 mph - N/A   Clear
2:35 AM 39.6 °F 32.5 °F 26.6 °F 60% 29.81 in 10.0 mi NW 11.5 mph 16.1 mph N/A   Clear
2:55 AM 39.2 °F 34.2 °F 26.1 °F 59% 29.81 in 10.0 mi NW 6.9 mph - N/A   Clear
3:15 AM 38.8 °F 34.6 °F 26.4 °F 61% 29.81 in 10.0 mi NW 5.8 mph - N/A   Clear
3:35 AM 38.1 °F 33.7 °F 26.6 °F 63% 29.81 in 10.0 mi WNW 5.8 mph - N/A   Clear
3:55 AM 37.9 °F 34.4 °F 26.6 °F 64% 29.81 in 10.0 mi WNW 4.6 mph - N/A   Scattered Clouds
4:15 AM 37.6 °F 35.1 °F 26.6 °F 65% 29.80 in 10.0 mi WNW 3.5 mph - N/A   Scattered Clouds
4:35 AM 37.4 °F 33.8 °F 26.8 °F 66% 29.81 in 10.0 mi WNW 4.6 mph - N/A   Scattered Clouds
5:15 AM 36.9 °F 34.3 °F 27.5 °F 69% 29.81 in 10.0 mi WNW 3.5 mph - N/A   Clear
5:35 AM 36.9 °F 33.1 °F 27.7 °F 69% 29.81 in 10.0 mi WNW 4.6 mph - N/A   Scattered Clouds
6:15 AM 37.0 °F 33.3 °F 28.9 °F 73% 29.82 in 10.0 mi WNW 4.6 mph - N/A   Mostly Cloudy
6:35 AM 37.6 °F 33.1 °F 30.2 °F 75% 29.82 in 10.0 mi WNW 5.8 mph - N/A   Mostly Cloudy
6:55 AM 37.8 °F 33.3 °F 30.0 °F 74% 29.82 in 10.0 mi WNW 5.8 mph - N/A   Mostly Cloudy
7:15 AM 37.4 °F 32.8 °F 29.1 °F 72% 29.82 in 10.0 mi WNW 5.8 mph - N/A   Scattered Clouds
7:35 AM 37.0 °F 32.4 °F 28.4 °F 71% 29.82 in 10.0 mi NW 5.8 mph - N/A   Clear
7:55 AM 37.0 °F 32.4 °F 28.0 °F 70% 29.83 in 10.0 mi NW 5.8 mph - N/A   Clear
8:35 AM 40.3 °F 34.9 °F 28.4 °F 63% 29.84 in 10.0 mi WNW 8.1 mph - N/A   Overcast
8:55 AM 41.7 °F 34.8 °F 28.2 °F 59% 29.85 in 10.0 mi NW 12.7 mph 18.4 mph N/A   Overcast
9:15 AM 41.9 °F 35.0 °F 28.0 °F 58% 29.85 in 10.0 mi NW 12.7 mph 18.4 mph N/A   Overcast
9:35 AM 41.4 °F 35.2 °F 28.0 °F 59% 29.85 in 10.0 mi NW 10.4 mph 16.1 mph N/A   Mostly Cloudy
9:55 AM 43.0 °F 36.8 °F 28.0 °F 56% 29.86 in 10.0 mi NW 11.5 mph 19.6 mph N/A   Scattered Clouds
10:15 AM 45.0 °F 37.9 °F 27.3 °F 50% 29.86 in 10.0 mi NW 16.1 mph 19.6 mph N/A   Mostly Cloudy
10:35 AM 44.6 °F 38.4 °F 27.7 °F 52% 29.86 in 10.0 mi NW 12.7 mph 19.6 mph N/A   Scattered Clouds
10:55 AM 44.6 °F 37.8 °F 26.8 °F 50% 29.86 in 10.0 mi NW 15.0 mph 28.8 mph N/A   Scattered Clouds
11:15 AM 45.9 °F 40.0 °F 27.9 °F 49% 29.87 in 10.0 mi NW 12.7 mph 19.6 mph N/A   Mostly Cloudy
11:35 AM 46.0 °F 41.9 °F 26.4 °F 46% 29.87 in 10.0 mi NW 8.1 mph 17.3 mph N/A   Overcast
11:55 AM 45.5 °F 40.3 °F 25.5 °F 46% 29.86 in 10.0 mi NW 10.4 mph 17.3 mph N/A   Overcast
12:15 PM 45.3 °F 39.0 °F 24.1 °F 43% 29.86 in 10.0 mi NW 13.8 mph 19.6 mph N/A   Mostly Cloudy
12:35 PM 46.9 °F - 20.8 °F 36% 29.85 in 10.0 mi WNW 8.1 mph 17.3 mph N/A   Clear
12:55 PM 47.5 °F - 19.6 °F 33% 29.84 in 10.0 mi West 9.2 mph - N/A   Clear
1:15 PM 48.2 °F - 18.3 °F 31% 29.83 in 10.0 mi WNW 10.4 mph 18.4 mph N/A   Mostly Cloudy
1:35 PM 48.7 °F - 19.0 °F 31% 29.82 in 10.0 mi WNW 8.1 mph 16.1 mph N/A   Scattered Clouds
1:55 PM 47.8 °F - 16.9 °F 29% 29.82 in 10.0 mi NW 6.9 mph - N/A   Scattered Clouds
2:15 PM 47.3 °F - 12.9 °F 25% 29.82 in 10.0 mi WNW 9.2 mph 17.3 mph N/A   Mostly Cloudy
2:35 PM 47.3 °F - 18.3 °F 32% 29.82 in 10.0 mi NW 11.5 mph 18.4 mph N/A   Mostly Cloudy
2:55 PM 48.2 °F - 23.4 °F 38% 29.82 in 10.0 mi NW 10.4 mph 18.4 mph N/A   Scattered Clouds
3:15 PM 47.5 °F - 24.3 °F 40% 29.82 in 10.0 mi NW 9.2 mph - N/A   Mostly Cloudy
3:35 PM 46.9 °F - 24.8 °F 42% 29.82 in 10.0 mi NNW 8.1 mph - N/A   Overcast
3:55 PM 46.9 °F - 25.0 °F 42% 29.82 in 10.0 mi NNW 8.1 mph - N/A   Overcast
4:15 PM 46.4 °F 43.5 °F 24.6 °F 42% 29.82 in 10.0 mi NNW 5.8 mph - N/A   Overcast
4:35 PM 46.4 °F 45.2 °F 25.2 °F 43% 29.82 in 10.0 mi NW 3.5 mph - N/A   Overcast
4:55 PM 46.4 °F 43.5 °F 25.0 °F 43% 29.82 in 10.0 mi NW 5.8 mph - N/A   Overcast
5:15 PM 45.0 °F 43.5 °F 26.1 °F 48% 29.82 in 10.0 mi NW 3.5 mph - N/A   Mostly Cloudy
5:35 PM 42.3 °F 40.5 °F 27.1 °F 55% 29.83 in 10.0 mi NNW 3.5 mph - N/A   Scattered Clouds
5:55 PM 43.0 °F - 27.1 °F 54% 29.83 in 10.0 mi Calm Calm - N/A   Mostly Cloudy
6:15 PM 43.5 °F - 28.2 °F 55% 29.84 in 10.0 mi Calm Calm - N/A   Overcast
6:35 PM 41.7 °F - 29.1 °F 61% 29.84 in 10.0 mi Calm Calm - N/A   Overcast
6:55 PM 37.4 °F - 28.8 °F 71% 29.85 in 10.0 mi Calm Calm - N/A   Scattered Clouds
7:15 PM 35.4 °F - 27.5 °F 73% 29.85 in 10.0 mi Calm Calm - N/A   Clear
7:35 PM 33.8 °F - 28.6 °F 81% 29.85 in 10.0 mi Calm Calm - N/A   Scattered Clouds
7:55 PM 34.0 °F - 27.9 °F 78% 29.85 in 7.0 mi Calm Calm - N/A   Scattered Clouds
8:15 PM 34.3 °F - 28.8 °F 80% 29.86 in 7.0 mi Calm Calm - N/A   Mostly Cloudy
8:35 PM 34.2 °F - 29.3 °F 82% 29.86 in 10.0 mi Calm Calm - N/A   Overcast
8:55 PM 34.2 °F - 31.1 °F 89% 29.86 in 5.0 mi Calm Calm - N/A   Overcast
9:15 PM 35.8 °F - 32.2 °F 87% 29.87 in 5.0 mi Calm Calm - N/A   Overcast
9:35 PM 36.3 °F - 32.4 °F 86% 29.87 in 10.0 mi Calm Calm - N/A   Overcast
9:55 PM 35.6 °F 32.8 °F 31.8 °F 86% 29.87 in 7.0 mi NNW 3.5 mph - N/A   Overcast
10:15 PM 36.9 °F 33.1 °F 32.4 °F 84% 29.87 in 10.0 mi North 4.6 mph - N/A   Overcast
10:35 PM 38.8 °F - 34.0 °F 83% 29.87 in 10.0 mi Calm Calm - N/A   Overcast
10:55 PM 38.7 °F - 33.3 °F 81% 29.86 in 10.0 mi Calm Calm - N/A   Overcast
11:15 PM 38.3 °F - 33.3 °F 82% 29.86 in 10.0 mi Calm Calm - N/A   Overcast
11:35 PM 38.5 °F - 34.3 °F 85% 29.87 in 10.0 mi Calm Calm - N/A   Overcast
11:55 PM 41.5 °F 38.6 °F 32.9 °F 71% 29.87 in 10.0 mi NNW 4.6 mph - N/A   Overcast